sat.trackr.live / text

‹ back to catalog

KUIPER-00136

NORAD 65962 · 2025-228R

PAYLOAD ACTIVE UNKNOWN

§ Identity

Operator
Country
US
Launch date
2025-10-14
Launch site
AFETR
Launch vehicle
Mass (kg)
RCS (m²)

External: N2YO · Heavens-Above · Gunter

§ Orbital elements

Epoch: 2026-09-20T06:17:31.323840Z

Period
97.30 min
Inclination
51.9008°
Eccentricity
0.0000710
Mean motion
14.79966274 rev/d
Perigee alt
628.9 km
Apogee alt
629.9 km
Semi-major
7,007.6 km
B*
1.8005e-4
RAAN
207.7519°
Arg perigee
60.7839°
Mean anomaly
299.3194°
Rev number
5,221

§ Raw data

KUIPER-001361 65962U 25228R   26263.26216810  .00001153  00000+0  18005-3 0  99982 65962  51.9008 207.7519 0000710  60.7839 299.3194 14.79966274 52217

JSON: /api/v1/satellites/65962 · /tle

For live sub-satellite position, see the globe view (requires WebGL).

§ Visibility from observer

Set your observer location to see the next 7 days of passes ≥ 10°. The values pass through the URL so the page stays shareable.

No JS? Fill the form by hand. The geolocation button needs JavaScript.